Flag for U.S.A. Weather past 2 weeks in Duluth, Minnesota, U.S.A.

Now
59 °F

Partly sunny.


Feels Like: 60 °F
Forecast: 47 / 71 °F
Wind: 3 mph from Northeast

Location: Sky Harbor Airport

Current Time: Jul 1, 2015 at 10:26:55 AM

Latest Report: Jul 1, 2015 at 9:54 AM


Visibility: 10 mi

Pressure: 30.03 "Hg

Humidity: 82%

Dew point: 54 °F

Location of DuluthLocation

Historic Weather in Duluth — Graph

°F

Duluth temperature yesterday

Maximum temperature yesterday: 64 °F (at 12:14 AM)
Minimum temperature yesterday: 57 °F (at 8:54 AM)
Average temperature yesterday: 60 °F

Past Weeks' High & Low Weather Summary

 TemperatureHumidityPressure
High84 °F (Jun 27, 3:54 PM)100% (Jun 21, 2:14 AM)30.25 "Hg (Jun 21, 2:14 AM)
Low34 °F (Jun 26, 9:33 AM)33% (Jun 27, 3:54 PM)29.60 "Hg (Jun 22, 3:34 PM)
Average61 °F81%29.96 "Hg
* Reported Jun 16 9:14 AM — Jul 1 9:14 AM, Duluth, Weather by CustomWeather, © 2015

Note: Actual official high and low records may vary slightly from our data, if they occured in-between our weather recording intervals... More about our weather records

Advertising

Duluth weather history for previous 24 hours

 ConditionsComfort  
Time TempWeatherWind HumidityBarometerVisibility
9:14 AM
Wed, Jul 1
59 °FScattered clouds.5 mph82%30.03 "Hg10 mi
8:55 AM57 °FSunny.3 mph88%30.03 "Hg10 mi
8:34 AM57 °FPartly sunny.3 mph88%30.03 "Hg10 mi
8:14 AM57 °FPartly sunny.3 mph88%30.04 "Hg10 mi
7:54 AM57 °FScattered clouds.3 mph88%30.04 "Hg10 mi
7:34 AM57 °FScattered clouds.6 mph88%30.04 "Hg10 mi
7:14 AM57 °FScattered clouds.5 mph88%30.03 "Hg10 mi
6:54 AM55 °FSunny.6 mph88%30.03 "Hg10 mi
6:34 AM54 °FSunny.No wind94%30.02 "Hg10 mi
6:14 AM54 °FClear.No wind94%30.02 "Hg10 mi
5:55 AM54 °FClear.No wind94%30.02 "Hg10 mi
5:34 AM54 °FClear.No wind94%30.01 "Hg10 mi
5:14 AM55 °FClear.3 mph88%30.01 "Hg10 mi
4:54 AM55 °FClear.3 mph88%30.00 "Hg10 mi
4:35 AM55 °FClear.6 mph88%30.01 "Hg10 mi
4:14 AM55 °FClear.6 mph88%30.01 "Hg10 mi
3:54 AM55 °FClear.6 mph88%30.00 "Hg10 mi
3:35 AM55 °FClear.7 mph88%30.00 "Hg10 mi
3:14 AM55 °FClear.8 mph94%30.00 "Hg10 mi
2:54 AM55 °FClear.5 mph94%30.00 "Hg10 mi
2:34 AM55 °FClear.7 mph94%30.00 "Hg10 mi
2:14 AM55 °FClear.7 mph94%30.00 "Hg10 mi
1:54 AM57 °FClear.7 mph88%30.00 "Hg10 mi
1:33 AM57 °FClear.9 mph88%30.00 "Hg10 mi
1:14 AM57 °FClear.9 mph88%30.00 "Hg10 mi
12:54 AM57 °FClear.12 mph88%30.00 "Hg10 mi
12:33 AM57 °FClear.12 mph88%30.00 "Hg10 mi
12:14 AM57 °FClear.10 mph88%30.00 "Hg10 mi
11:54 PM
Tue, Jun 30
57 °FClear.12 mph88%30.00 "Hg10 mi
11:34 PM57 °FClear.10 mph88%29.99 "Hg10 mi
10:54 PM57 °FClear.12 mph88%29.99 "Hg10 mi
10:34 PM57 °FClear.8 mph88%29.99 "Hg10 mi
10:14 PM57 °FClear.9 mph88%29.99 "Hg10 mi
9:54 PM57 °FSunny.8 mph82%29.99 "Hg10 mi
9:34 PM57 °FSunny.9 mph82%29.99 "Hg10 mi
9:14 PM57 °FSunny.9 mph82%29.98 "Hg10 mi
8:54 PM57 °FSunny.8 mph82%29.98 "Hg10 mi
8:34 PM57 °FSunny.9 mph82%29.98 "Hg10 mi
8:13 PM57 °FSunny.9 mph82%29.98 "Hg10 mi
7:54 PM57 °FSunny.9 mph88%29.98 "Hg10 mi
7:34 PM57 °FSunny.10 mph82%29.98 "Hg10 mi
7:14 PM57 °FSunny.10 mph88%29.98 "Hg10 mi
6:53 PM59 °FSunny.9 mph77%29.97 "Hg10 mi
6:34 PM61 °FSunny.12 mph72%29.96 "Hg10 mi
6:14 PM61 °FSunny.10 mph72%29.96 "Hg10 mi
5:53 PM61 °FSunny.10 mph77%29.97 "Hg10 mi
5:34 PM61 °FSunny.9 mph72%29.98 "Hg10 mi
4:54 PM61 °FSunny.10 mph72%29.98 "Hg10 mi
4:33 PM61 °FSunny.9 mph72%29.98 "Hg10 mi
4:14 PM61 °FSunny.7 mph72%29.99 "Hg10 mi
3:54 PM61 °FSunny.10 mph72%29.98 "Hg10 mi
3:33 PM61 °FSunny.10 mph68%29.98 "Hg10 mi
3:14 PM61 °FSunny.9 mph68%29.99 "Hg10 mi
2:54 PM61 °FSunny.9 mph68%29.99 "Hg10 mi
2:33 PM61 °FSunny.7 mph63%30.00 "Hg10 mi
2:14 PM61 °FSunny.7 mph68%30.00 "Hg10 mi
1:54 PM61 °FSunny.7 mph72%30.00 "Hg10 mi
1:34 PM61 °FSunny.7 mph72%30.00 "Hg10 mi
1:14 PM59 °FSunny.9 mph77%30.00 "Hg10 mi
12:54 PM59 °FSunny.9 mph72%30.00 "Hg10 mi
11:54 AM59 °FPartly sunny.10 mph72%30.01 "Hg10 mi
11:34 AM59 °FOvercast.12 mph72%30.00 "Hg10 mi
10:54 AM59 °FOvercast.13 mph68%30.00 "Hg10 mi
Weather by CustomWeather, © 2015

See weather overviewHow to use our weather pages